Weather History for Fryeburg, ME

Change the Weather History Date:

Tuesday, March 5, 2013

  Actual Average Record
Temperature  
Mean Temperature 36 °F -  
Max Temperature 42 °F 34 °F 45 °F (2011)
Min Temperature 30 °F 14 °F -2 °F (2009)
Degree Days  
Heating Degree Days 29    
Moisture  
Dew Point 27 °F    
Average Humidity 66    
Maximum Humidity 89    
Minimum Humidity 53    
Precipitation  
Precipitation 0.00 in - - ()
Sea Level Pressure  
Sea Level Pressure 29.98 in    
Wind  
Wind Speed 6 mph (NNE)    
Max Wind Speed 13 mph    
Max Gust Speed 18 mph    
Visibility 10 miles    
Events      
Averages and records for this station are not official NWS values.
T = Trace of Precipitation, MM = Missing Value Source: NWS Daily Summary

Daily Weather History Graph

Daily Weather History Graph

Search for Another Location

Airport:

Trip Planner

Search our weather history database for the weather conditions in past years. The results will help you decide how hot, cold, wet, or windy it might be!

Date:

Astronomy

Mar. 05, 2013 Rise Set
Actual Time 6:13 AM EST 5:37 PM EST
Civil Twilight 5:44 AM EST 6:06 PM EST
Nautical Twilight 5:11 AM EST 6:39 PM EST
Astronomical Twilight 4:37 AM EST 7:13 PM EST
Moon 1:31 AM EST (3/5) 11:04 AM EST (3/5)
Length of Visible Light 12h 21m
Length of Day
11h 24m
Last Quarter, 41% of the Moon is Illuminated
Mar 5
Last Quarter
Mar 11
New
Mar 19
First Quarter
Mar 27
Full
Apr 3
Last Quarter

Hourly Weather History & Observations

Time (EST) Temp. Windchill Dew Point Humidity Pressure Visibility Wind Dir Wind Speed Gust Speed Precip Events Conditions
12:54 AM 30.9 °F 24.3 °F 21.0 °F 67% 29.76 in 10.0 mi Variable 6.9 mph 16.1 mph N/A   Scattered Clouds
2:54 AM 32.0 °F - 21.9 °F 66% 29.80 in 10.0 mi Calm Calm - N/A   Overcast
3:54 AM 33.1 °F 28.7 °F 21.9 °F 64% 29.83 in 10.0 mi Variable 4.6 mph - N/A   Overcast
4:54 AM 33.1 °F 28.7 °F 21.9 °F 64% 29.86 in 10.0 mi North 4.6 mph - N/A   Overcast
5:54 AM 33.1 °F 27.7 °F 23.0 °F 66% 29.88 in 10.0 mi Variable 5.8 mph - N/A   Overcast
6:54 AM 33.1 °F - 23.0 °F 66% 29.91 in 10.0 mi Calm Calm - N/A   Overcast
8:54 AM 37.9 °F 30.0 °F 24.1 °F 57% 29.94 in 10.0 mi North 12.7 mph 18.4 mph 0.00 in   Overcast
9:54 AM 39.0 °F 32.8 °F 25.0 °F 57% 29.95 in 10.0 mi North 9.2 mph - N/A   Scattered Clouds
10:54 AM 39.9 °F 36.7 °F 26.1 °F 58% 29.96 in 10.0 mi North 4.6 mph - N/A   Overcast
11:54 AM 42.1 °F 38.4 °F 26.1 °F 53% 29.96 in 10.0 mi North 5.8 mph - N/A   Overcast
12:54 PM 41.0 °F 35.2 °F 26.1 °F 55% 29.98 in 10.0 mi North 9.2 mph - N/A   Overcast
1:54 PM 42.1 °F 37.1 °F 27.0 °F 55% 29.99 in 10.0 mi North 8.1 mph - N/A   Overcast
2:54 PM 39.9 °F 33.9 °F 28.0 °F 63% 30.01 in 10.0 mi NNE 9.2 mph - 0.00 in   Overcast
3:54 PM 42.1 °F 36.1 °F 27.0 °F 55% 30.01 in 10.0 mi North 10.4 mph - N/A   Scattered Clouds
4:54 PM 42.1 °F 37.1 °F 27.0 °F 55% 30.02 in 10.0 mi North 8.1 mph - N/A   Mostly Cloudy
5:54 PM 39.9 °F 35.1 °F 27.0 °F 60% 30.04 in 10.0 mi North 6.9 mph - N/A   Mostly Cloudy
6:54 PM 39.0 °F 34.8 °F 28.0 °F 65% 30.06 in 10.0 mi North 5.8 mph - N/A   Overcast
7:54 PM 37.0 °F 34.5 °F 32.0 °F 82% 30.08 in 10.0 mi ENE 3.5 mph - 0.00 in   Overcast
8:54 PM 35.1 °F - 30.9 °F 85% 30.08 in 10.0 mi Calm Calm - N/A   Overcast
9:45 PM 37.4 °F 34.9 °F 32.0 °F 81% 30.07 in 10.0 mi NNE 3.5 mph - N/A   Overcast
9:54 PM 37.0 °F - 32.0 °F 82% 30.08 in 10.0 mi Calm Calm - 0.00 in   Overcast
10:54 PM 37.0 °F 31.0 °F 30.9 °F 79% 30.10 in 10.0 mi NE 8.1 mph - 0.00 in   Overcast
11:54 PM 35.1 °F 27.9 °F 32.0 °F 89% 30.12 in 10.0 mi NE 9.2 mph - 0.00 in   Overcast